Hourly Data Report for October 07, 2018

MONTREAL INTL A
QUEBEC
Current Station Operator: NAVCAN

45°28'14.000" N
73°44'27.000" W
36.00 m
7025251
71627
YUL

Download Data

Hourly Data (October 2018)
Hourly Data Report for October 7, 2018
TIME
LST
Temp Definition
°C
Dew Point Definition
°C
Rel Hum Definition
%
Precip. Amount Definition
mm

Wind Dir Definition
10's deg

Wind Spd Definition
km/h
Visibility Definition
km
Stn Press Definition
kPa
Hmdx Definition


Wind Chill Definition


Weather Definition


00:00 9.4 8.2 92   22 4 16.1 101.41     LegendNANA
01:00 9.7 8.8 94   21 3 16.1 101.48     Rain
02:00 9.8 8.9 94   36 3 19.3 101.54     LegendNANA
03:00 10.1 8.8 92   36 9 24.1 101.59     LegendNANA
04:00 9.9 8.6 91   2 9 24.1 101.69     Cloudy
05:00 9.9 7.7 86   7 18 19.3 101.80     LegendNANA
06:00 9.2 6.2 81   4 23 24.1 101.90     LegendNANA
07:00 8.8 6.1 83   4 23 24.1 102.01     Cloudy
08:00 8.7 5.3 79   3 21 24.1 102.12     LegendNANA
09:00 9.3 5.2 76   3 18 24.1 102.19     LegendNANA
10:00 9.2 4.7 73   3 21 24.1 102.26     Cloudy
11:00 9.0 4.2 72   5 21 24.1 102.28     LegendNANA
12:00 9.1 4.3 72   2 16 24.1 102.30     LegendNANA
13:00 9.5 4.3 70   3 11 24.1 102.32     Cloudy
14:00 10.0 3.5 64   1 17 24.1 102.30     LegendNANA
15:00 10.0 3.9 66   3 11 24.1 102.33     LegendNANA
16:00 9.6 3.5 65   4 10 24.1 102.39     Cloudy
17:00 9.2 4.0 70   4 10 24.1 102.47     LegendNANA
18:00 9.3 3.5 67   6 8 22.5 102.52     LegendNANA
19:00 8.6 3.6 70   8 10 24.1 102.56     Mostly Cloudy
20:00 5.8 3.2 83   5 12 24.1 102.62     LegendNANA
21:00 5.7 3.0 82   2 8 24.1 102.66     LegendNANA
22:00 6.9 3.1 77   2 18 24.1 102.67     Mostly Cloudy
23:00 6.7 2.2 73   2 19 24.1 102.65     LegendNANA

Notes on Data Quality.

Legend

  • E = Estimated
  • M = Missing
  • NA = Not Available*
  • [empty] = Indicates an unobserved value
Date modified: